Location: Le Sartre
(44.8050°N, 2.2123°E)
Time: 16:20:59
(UTC+00:00)

CZ-2C R/B - Pass Details

Date: 15 May 2026
Orbit: 331 x 343 km, 97.7° (Epoch: 10 June)

Event Time Altitude Azimuth Distance (km) Brightness Sun altitude
Exits shadow 21:54:37 36° 302° (WNW) 553 3.3 -21.2°
Drops below altitude 10° 21:56:35 10° 335° (NNW) 1,273 5.9 -21.3°
Sets 21:58:32 0° 342° (NNW) 2,117 7.3 -21.5°
